PEGASUS DEB

Satellite information

Favourite Embed

Satellite Type and Status

DEBRISIN ORBIT

Key statistics

Satellite PEGASUS DEB at a glance.

Uptime

11532

Days in orbit

Revolutions

≈ 14.3

Per day

Orbit

LEO

Low Earth Orbit

Inclination

81.8

Latest

Satellite identification and parameters

Extended collection of information and parameters for PEGASUS DEB.

Object identification

Identified? True

Debris? True

Object name: PEGASUS DEB

International designator: 1994-029AGF

Object number (NORAD): 39932

Object ID (CCSDS): 39932

Country: UNITED STATES OF AMERICA (US)

Current information (Y/N): Y

RCS size: SMALL

Orbital parameters

Period: 100.726 minutes

Inclination: 81.8187 deg

SMA: 7171.123 km

Apoapsis: 1006.405 km

Periapsis: 579.571 km

RAAN: 36.2774 deg

Eccentricy: 0.02976057

Argument of periapsis: 335.2933 deg

Mean anomaly: 23.4232 deg

Mean motion: 14.29624612 rev/day

Mean motion (dot): 0.00002678 rev/day2

B* drag term: 0.00064222201 1/REarth

Two-line elements (TLE)

Creation date: Dec. 3, 2025, 11:19 a.m.

Reference frame: TEME

Reference center: EARTH

Epoch: Dec. 2, 2025, 9:53 p.m. UTC

TLE line 0: 0 PEGASUS DEB

TLE line 1: 1 39932U 94029AGF 25336.91185073 .00002678 00000-0 64222-3 0 9995

TLE line 2: 2 39932 81.8187 36.2774 0297606 335.2933 23.4232 14.29624612596393

Live tracking on map

Real-time ground track for satellite PEGASUS DEB.

In-orbit conjunctions

A list of the most updated potential collisions computed for object PEGASUS DEB.

Target Orbit TCA Probability of collision Miss distance Type
THOR ABLESTAR DEB LEO 2024-09-26 11:17:09 0.0001568584 338.0 (m) DEBRIS

Associated space launch

PEGASUS DEB was lifted into orbit during the mission ‘Pegasus HAPS | Space Test Experiments Platform 2 (STEP-2)’, on board a Pegasus HAPS space rocket.

The launch took place on May 19, 1994, 5:03 p.m. from Edwards Air Force Base.

For more information about the launch, click the button.

Launch to space Pegasus HAPS | Space Test Experiments Platform 2 (STEP-2)
Pegasus HAPS | Space Test Experiments Platform 2 (STEP-2)

Agency: N/A

Status: Launch Successful

Launch date: May 19, 1994, 5:03 p.m. UTC

Rocket: Pegasus HAPS

Launch pad: Edwards Air Force Base

Location: Air launch to orbit

...

Latest news about this satellite

There are no fresh news available about this satellite. Check back as we update our databases every day.


Newsletter sign-up

Weekly statistics, charts and insights to help you stay on top of the space industry.